[[{"header":{"parameterUnit":"m.s-1","parameterCategory":1,"la1":30.2991,"la2":30.254,"lo1":-89.0895,"lo2":-89.0444,"dy":0.0017,"dx":0.0017,"nx":28,"ny":28,"refTime":"2023-08-04T03:00:00:Z","depth":0,"parameterNumber":2,"parameterNumberName":"U-component_of_WINDS"},"data":[0,0,0,0,0,0,0,0,0,0,0,0,0,0,0,0,0,0,0,0,0,0,0,0,0,0,0,0,0,0,0,0,0,0,0,0,0,0,0,0,0,0,0,0,0,0,0,0,0,0,0,0,0,0,0,0,0,0,0.1339,0.134,0,0.1438,0.1439,0.144,0.1504,0.1504,0.1504,0.1505,0.1605,0.1608,0.161,0,0,0,0,0,0,0,0,0,0,0,0,0,0.1204,0.1206,0.1339,0.134,0.1341,0.1437,0.1439,0.144,0.1504,0.1504,0.1505,0.1505,0.1605,0.1607,0.161,0,0,0,0,0,0,0,0,0,0,0,0,0,0.1278,0.1207,0.1339,0.1385,0.139,0.1437,0.1439,0.1441,0.1503,0.1504,0.1505,0.1505,0.1604,0.1607,0.161,0.162,0,0,0.1621,0.1623,0,0,0,0,0,0,0,0,0.1274,0.1283,0.1377,0.1382,0.1387,0.1459,0.1428,0.1501,0.1503,0.146,0.1505,0.1505,0.1556,0.1564,0.1581,0.1625,0.1629,0.1621,0.1623,0.1625,0.1626,0,0,0,0,0,0,0,0.1269,0.1279,0.1378,0.1378,0.1384,0.14,0.1411,0.1442,0.1504,0.1464,0.1469,0.148,0.1559,0.1577,0.1584,0.163,0.1621,0.1624,0.1626,0.1628,0.1686,0.1685,0,0,0,0,0,0,0.1257,0.1275,0.1375,0.1381,0.1331,0.1402,0.1414,0.1435,0.1503,0.1514,0.1479,0.1482,0.1571,0.1579,0.1587,0.1602,0.1625,0.1628,0.163,0.1686,0.1686,0.1685,0,0,0,0,0,0,0.1253,0.1265,0.1371,0.1329,0.1344,0.1403,0.1427,0.1437,0.1455,0.1515,0.1526,0.1486,0.1572,0.1582,0.1611,0.1606,0.163,0.1633,0.1687,0.1686,0.1685,0.1632,0,0,0,0,0,0,0.1249,0.1263,0.1268,0.1329,0.1346,0.1393,0.1426,0.1438,0.1461,0.1466,0.1525,0.1535,0.1573,0.1606,0.1614,0.1612,0.1636,0.1688,0.1687,0.1686,0.1634,0.1629,0.1625,0,0,0,0,0,0.1244,0.1249,0.1268,0.128,0.1353,0.1393,0.1403,0.1447,0.146,0.1465,0.1503,0.1533,0.1606,0.1608,0.1619,0.1617,0.1688,0.1687,0.1686,0.1636,0.163,0.1625,0,0,0,0,0,0,0.1186,0.1258,0.128,0.1304,0.1342,0.1403,0.1411,0.1439,0.1473,0.1477,0.153,0.1542,0.1565,0.1594,0.1595,0.1629,0.165,0.1651,0.1609,0.1604,0.1599,0.1592,0.1638,0,0,0,0,0,0.1176,0.1203,0.1264,0.128,0.1298,0.1351,0.137,0.1401,0.1442,0.1458,0.1498,0.1537,0.1568,0.1588,0.162,0.1639,0.1652,0.1643,0.1638,0.1634,0.1634,0.1645,0.1641,0.1681,0.1681,0.1681,0,0,0.1156,0.1198,0.1212,0.1269,0.1302,0.1328,0.1364,0.139,0.141,0.1462,0.1491,0.1522,0.1568,0.1592,0.1604,0.1616,0.1626,0.1633,0.1629,0.1631,0.1643,0.1639,0.1636,0.168,0.1681,0.1681,0,0,0.1132,0.1167,0.1184,0.1216,0.1265,0.13,0.1304,0.1361,0.1384,0.1414,0.1453,0.1477,0.153,0.1562,0.1584,0.1571,0.1599,0.158,0.1556,0.1566,0.1563,0.156,0.1554,0.1552,0.158,0.158,0.158,0,0.11,0.1141,0.1189,0.1212,0.1236,0.1284,0.1301,0.133,0.1387,0.1402,0.1415,0.1482,0.1517,0.1547,0.1544,0.1561,0.1567,0.1573,0.1559,0.1557,0.1556,0.1551,0.1549,0.1577,0.1577,0.1578,0.1578,0,0.11,0.1127,0.1135,0.1188,0.1213,0.1233,0.1283,0.1302,0.133,0.1363,0.1393,0.1436,0.1478,0.1487,0.1515,0.1522,0.1528,0.1549,0.1572,0.1548,0.1545,0.1543,0.1573,0.1574,0.1575,0.1576,0,0,0.1042,0.1121,0.1123,0.1147,0.1205,0.1227,0.1249,0.1289,0.1304,0.1342,0.1361,0.1404,0.1424,0.145,0.1482,0.1491,0.1476,0.1511,0.1513,0.1502,0.1485,0.1467,0.1464,0.1495,0.1495,0.1495,0.148,0,0.1026,0.1068,0.111,0.1137,0.1163,0.1209,0.1228,0.1264,0.1296,0.1322,0.1357,0.1387,0.1412,0.1427,0.1438,0.1475,0.1473,0.1477,0.1513,0.1513,0.1499,0.1463,0.1445,0.1429,0.1479,0.1479,0.1479,0,0.1013,0.1048,0.1077,0.1131,0.1143,0.116,0.12,0.1224,0.1267,0.1289,0.1317,0.1351,0.1375,0.1395,0.1429,0.1431,0.1448,0.1468,0.1469,0.1473,0.1494,0.1465,0.1425,0.1422,0.1477,0.1478,0.1478,0,0.0966,0.1021,0.1045,0.1065,0.1129,0.1139,0.1166,0.1209,0.123,0.1265,0.1279,0.1317,0.1337,0.1364,0.1407,0.1418,0.1436,0.146,0.1455,0.1453,0.1456,0.1455,0.1417,0.1468,0.1468,0.1468,0.1468,0,0.0943,0.0959,0.1025,0.1039,0.1058,0.1107,0.1124,0.1155,0.1193,0.1214,0.1256,0.1275,0.133,0.1355,0.1389,0.1411,0.142,0.1439,0.1447,0.1434,0.1432,0.1446,0.1448,0.1468,0.1468,0.1468,0.1468,0,0.0894,0.0939,0.0968,0.1026,0.1041,0.1052,0.1102,0.1118,0.1152,0.1178,0.1187,0.124,0.1271,0.1317,0.1362,0.1385,0.1402,0.1416,0.1387,0.1392,0.1384,0.1384,0.1353,0.1351,0.1404,0.1403,0.1403,0,0.0876,0.0889,0.0949,0.0966,0.0991,0.1019,0.1041,0.1089,0.111,0.1159,0.1168,0.1203,0.1234,0.1282,0.1324,0.1359,0.1374,0.1361,0.138,0.1366,0.1373,0.1371,0.1372,0.1356,0.1355,0.1355,0.1354,0,0.0839,0.086,0.089,0.0928,0.0953,0.0985,0.1018,0.103,0.1085,0.1107,0.114,0.1163,0.1209,0.1243,0.1284,0.1311,0.1341,0.1348,0.1348,0.1335,0.1317,0.1326,0.1374,0.1348,0.1349,0.1349,0.135,0.135,0.0804,0.0817,0.0861,0.0893,0.0923,0.0954,0.0971,0.1007,0.1036,0.1077,0.1104,0.1135,0.1177,0.1234,0.126,0.1285,0.1297,0.1298,0.1298,0.1297,0.1292,0.1314,0.1292,0.1293,0.1293,0.1293,0.1293,0,0.0768,0.0798,0.0827,0.0873,0.0898,0.0925,0.0963,0.0982,0.1009,0.1045,0.1074,0.1111,0.1144,0.1189,0.1225,0.1236,0.1251,0.1244,0.1243,0.1248,0.128,0.1275,0.1231,0.1231,0.1231,0.1231,0.1231,0.1231,0.0752,0.0776,0.0802,0.0841,0.0872,0.0903,0.0922,0.095,0.0979,0.1019,0.1046,0.1075,0.1115,0.1154,0.1185,0.1197,0.1208,0.1196,0.1213,0.1241,0.1246,0.1252,0.1248,0.1199,0.1199,0.1179,0.1179,0.1179]},{"header":{"parameterUnit":"m.s-1","parameterCategory":1,"la1":30.2991,"la2":30.254,"lo1":-89.0895,"lo2":-89.0444,"dy":0.0017,"dx":0.0017,"nx":28,"ny":28,"refTime":"2023-08-04T03:00:00:Z","depth":0,"parameterNumber":3,"parameterNumberName":"V-component_of_WINDS"},"data":[0,0,0,0,0,0,0,0,0,0,0,0,0,0,0,0,0,0,0,0,0,0,0,0,0,0,0,0,0,0,0,0,0,0,0,0,0,0,0,0,0,0,0,0,0,0,0,0,0,0,0,0,0,0,0,0,0,0,3.4278,3.4278,0,3.4243,3.4243,3.4242,3.4215,3.4215,3.4215,3.4215,3.4175,3.4174,3.4173,0,0,0,0,0,0,0,0,0,0,0,0,0,3.4319,3.4318,3.4278,3.4278,3.4277,3.4243,3.4243,3.4242,3.4215,3.4215,3.4215,3.4215,3.4175,3.4174,3.4173,0,0,0,0,0,0,0,0,0,0,0,0,0,3.4294,3.4318,3.4278,3.426,3.4258,3.4243,3.4243,3.4242,3.4216,3.4215,3.4215,3.4214,3.4176,3.4174,3.4173,3.4173,0,0,3.4169,3.4169,0,0,0,0,0,0,0,0,3.4296,3.4293,3.4263,3.4261,3.4259,3.4233,3.4243,3.4219,3.4216,3.4231,3.4215,3.4214,3.4194,3.4192,3.4186,3.4171,3.4169,3.4169,3.4168,3.4168,3.4168,0,0,0,0,0,0,0,3.4297,3.4294,3.4264,3.4263,3.426,3.4253,3.4249,3.4238,3.4215,3.423,3.4228,3.4225,3.4193,3.4187,3.4185,3.4169,3.4169,3.4168,3.4167,3.4167,3.4152,3.4153,0,0,0,0,0,0,3.4302,3.4296,3.4265,3.4263,3.4277,3.4252,3.4248,3.4242,3.4215,3.4211,3.4225,3.4223,3.4189,3.4186,3.4183,3.4181,3.4168,3.4167,3.4166,3.4152,3.4153,3.4153,0,0,0,0,0,0,3.4303,3.43,3.4267,3.4279,3.4274,3.4252,3.4245,3.4241,3.4235,3.4212,3.4207,3.4223,3.4189,3.4185,3.4176,3.4179,3.4166,3.4165,3.4152,3.4152,3.4153,3.4177,0,0,0,0,0,0,3.4305,3.43,3.4301,3.4279,3.4274,3.4261,3.4246,3.4241,3.4234,3.4231,3.4208,3.4204,3.4188,3.4178,3.4175,3.4177,3.4164,3.4151,3.4152,3.4153,3.4176,3.4179,3.4181,0,0,0,0,0,3.4306,3.4308,3.4301,3.4297,3.4273,3.4261,3.4258,3.4241,3.4234,3.4233,3.4219,3.4205,3.418,3.4177,3.4173,3.4176,3.4151,3.4152,3.4153,3.4175,3.4178,3.4181,0,0,0,0,0,0,3.4328,3.4305,3.4296,3.4291,3.4279,3.4257,3.4255,3.4244,3.4232,3.423,3.4209,3.4204,3.4197,3.4186,3.4183,3.4175,3.4164,3.4164,3.4182,3.4185,3.4187,3.419,3.4163,0,0,0,0,0,3.4333,3.4326,3.4305,3.4303,3.4297,3.4278,3.4272,3.426,3.4245,3.4239,3.4224,3.4209,3.4198,3.4191,3.4179,3.4175,3.4169,3.4175,3.4177,3.4179,3.4179,3.4176,3.4178,3.4156,3.4156,3.4156,0,0,3.4342,3.4328,3.4325,3.4307,3.4296,3.4288,3.4273,3.4266,3.426,3.4238,3.4229,3.4217,3.4199,3.4193,3.4189,3.4183,3.4184,3.418,3.4182,3.4181,3.4177,3.4179,3.4181,3.4156,3.4156,3.4156,0,0,3.4354,3.4343,3.434,3.433,3.4314,3.4301,3.4301,3.4281,3.4273,3.4264,3.4247,3.424,3.4221,3.4209,3.4201,3.4211,3.4198,3.4208,3.422,3.4217,3.4219,3.422,3.4224,3.4225,3.4208,3.4208,3.4208,0,3.4366,3.4355,3.4339,3.4334,3.4326,3.4308,3.4305,3.4295,3.4275,3.427,3.4265,3.4242,3.4228,3.4219,3.4222,3.4216,3.4214,3.4209,3.422,3.4221,3.4222,3.4225,3.4227,3.4209,3.4209,3.4209,3.4209,0,3.4372,3.4364,3.4364,3.4347,3.434,3.4335,3.4318,3.4313,3.4302,3.429,3.4281,3.4265,3.4251,3.4248,3.4236,3.4237,3.4234,3.4224,3.4213,3.4226,3.4228,3.4229,3.4211,3.4211,3.421,3.421,0,0,3.4395,3.4371,3.4371,3.4364,3.4346,3.4339,3.4334,3.4321,3.4317,3.4305,3.4299,3.4285,3.4277,3.4267,3.4255,3.4253,3.4262,3.4243,3.4243,3.4247,3.4261,3.4268,3.427,3.4254,3.4254,3.4254,3.4263,0,3.4403,3.4394,3.438,3.4375,3.4368,3.4352,3.4347,3.4335,3.4324,3.4316,3.4304,3.4294,3.4284,3.4278,3.4275,3.4261,3.4264,3.4261,3.4247,3.4247,3.4251,3.4271,3.4278,3.4287,3.4264,3.4264,3.4264,0,3.4412,3.4402,3.4397,3.4381,3.4377,3.4373,3.4361,3.4354,3.434,3.4332,3.4323,3.431,3.4303,3.4294,3.4284,3.4282,3.4276,3.4269,3.4269,3.4266,3.4255,3.4268,3.4289,3.429,3.4265,3.4265,3.4265,0,3.4429,3.4415,3.441,3.4404,3.4385,3.4383,3.4374,3.4361,3.4354,3.4343,3.4339,3.4327,3.432,3.4311,3.4295,3.429,3.4287,3.4276,3.4279,3.428,3.4278,3.4278,3.4298,3.4276,3.4276,3.4276,3.4276,0,3.444,3.4437,3.4417,3.4414,3.4411,3.4395,3.4392,3.4382,3.437,3.4364,3.4349,3.4344,3.4324,3.4316,3.4303,3.4297,3.4294,3.4287,3.4283,3.4288,3.4289,3.4282,3.4281,3.4276,3.4276,3.4276,3.4276,0,3.4458,3.4445,3.4438,3.4421,3.4417,3.4415,3.44,3.4396,3.4386,3.4378,3.4376,3.4358,3.4348,3.4332,3.4317,3.4309,3.4304,3.4299,3.4309,3.4307,3.4311,3.4311,3.4327,3.4328,3.4306,3.4306,3.4307,0,3.4465,3.4462,3.4446,3.4442,3.4435,3.4428,3.4422,3.4407,3.4401,3.4386,3.4384,3.4374,3.4364,3.4349,3.4334,3.4323,3.4317,3.4323,3.4315,3.432,3.4316,3.4316,3.4316,3.4325,3.4325,3.4325,3.4326,0,3.4479,3.4473,3.4466,3.4456,3.445,3.4442,3.4432,3.4429,3.4412,3.4406,3.4397,3.439,3.4376,3.4365,3.4352,3.4343,3.4331,3.4329,3.4329,3.4332,3.4338,3.4335,3.4314,3.4328,3.4328,3.4328,3.4327,3.4327,3.4491,3.4489,3.4477,3.447,3.4462,3.4454,3.4449,3.4439,3.4431,3.442,3.4411,3.4402,3.4389,3.4371,3.4363,3.4355,3.435,3.435,3.435,3.435,3.4351,3.4341,3.4353,3.4352,3.4352,3.4352,3.4352,0,3.4504,3.4497,3.449,3.4478,3.4472,3.4464,3.4454,3.4449,3.4442,3.4432,3.4424,3.4413,3.4403,3.4389,3.4378,3.4375,3.4369,3.4372,3.4372,3.437,3.4357,3.4358,3.4377,3.4377,3.4377,3.4377,3.4377,3.4377,3.451,3.4506,3.4499,3.449,3.4482,3.4475,3.447,3.4462,3.4454,3.4443,3.4436,3.4427,3.4415,3.4403,3.4394,3.439,3.4386,3.4391,3.4385,3.4373,3.437,3.4368,3.4369,3.439,3.439,3.4398,3.4398,3.4398]}]]